Le nostre stazioni meteo in Italia

Pubblicità
Il mio iltempo24.it
Catania/Fontanarossa, Italia (16460): Temperatura & dewpoint: 18.06.2018 22:00:00 - 24.06.2018 22:00:00 (CEST)Catania/Fontanarossa, Italia (16460): velocità del vento: 18.06.2018 22:00:00 - 24.06.2018 22:00:00 (CEST)Catania/Fontanarossa, Italia (16460): direzione del vento: 18.06.2018 22:00:00 - 24.06.2018 22:00:00 (CEST)Catania/Fontanarossa, Italia (16460): reduced air pressure: 18.06.2018 22:00:00 - 24.06.2018 22:00:00 (CEST)Catania/Fontanarossa, Italia (16460): visibility: 18.06.2018 22:00:00 - 24.06.2018 22:00:00 (CEST)Catania/Fontanarossa, Italia (16460): precipitazioni: 18.06.2018 22:00:00 - 24.06.2018 22:00:00 (CEST)
Data & Tempo tt [°C] td [°C] ff [km/h] ff [kn] dd ppp [hPa] vv [km] rr [mm]
24.06.2018 22:00:00 22,0 18,0 9 5 NNE - 10 -
24.06.2018 21:00:00 22,0 18,0 11 6 NE - 10 -
24.06.2018 20:00:00 22,5 17,7 11 6 ENE 1014,3 10 -
24.06.2018 19:00:00 23,0 17,0 13 7 NE - 10 -
24.06.2018 18:00:00 23,0 17,0 16 9 NE - 8 -
24.06.2018 17:00:00 22,8 17,3 18 10 NE 1014,8 8 0,0
24.06.2018 16:00:00 24,0 18,0 24 13 ENE - 10 -
24.06.2018 15:00:00 25,0 17,0 26 14 ENE - 10 -
24.06.2018 14:00:00 25,2 17,3 22 12 E 1016,0 10 -
24.06.2018 13:00:00 24,0 18,0 16 9 E - 10 -
24.06.2018 12:00:00 23,0 18,0 11 6 ESE - 10 -
24.06.2018 11:00:00 23,0 19,2 9 5 SE 1016,1 10 0,0
24.06.2018 10:00:00 22,0 20,0 2 1 - - 10 -
24.06.2018 09:00:00 21,0 20,0 8 4 NNE - 5 -
24.06.2018 08:00:00 21,3 19,5 11 6 NE 1015,0 7 -
24.06.2018 07:00:00 20,0 18,0 5 3 OSO - 10 -
24.06.2018 06:00:00 20,0 17,0 11 6 O - 10 -
24.06.2018 05:00:00 20,6 17,5 13 7 O 1014,2 10 0,0
24.06.2018 04:00:00 21,0 19,0 8 4 O - 10 -
24.06.2018 03:00:00 22,0 20,0 5 3 ESE - 10 -
24.06.2018 02:00:00 21,7 20,1 8 4 E 1015,2 10 -
24.06.2018 01:00:00 22,0 21,0 9 5 E - 10 -
24.06.2018 00:00:00 23,0 21,0 11 6 E - 10 -
23.06.2018 23:00:00 22,9 20,7 16 9 E 1015,4 10 0,0
23.06.2018 22:00:00 24,0 21,0 15 8 ENE - 10 -
23.06.2018 21:00:00 24,0 21,0 11 6 E - 10 -
23.06.2018 20:00:00 24,1 20,5 15 8 E 1014,7 10 -
23.06.2018 19:00:00 24,0 21,0 15 8 E - 10 -
23.06.2018 18:00:00 25,0 21,0 21 11 E - 10 -
23.06.2018 17:00:00 26,3 20,7 22 12 E 1014,7 10 0,0
23.06.2018 16:00:00 28,0 20,0 22 12 E - 10 -
23.06.2018 15:00:00 28,0 19,0 21 11 E - 10 -
23.06.2018 14:00:00 27,8 19,0 21 11 E 1015,0 10 -
23.06.2018 13:00:00 27,0 17,0 21 11 E - 10 -
23.06.2018 12:00:00 29,0 14,0 16 9 E - 10 -
23.06.2018 11:00:00 29,0 14,5 13 7 E 1015,1 10 0,0
23.06.2018 10:00:00 28,0 15,0 5 3 - - 10 -
23.06.2018 09:00:00 26,0 17,0 5 3 SO - 10 -
23.06.2018 08:00:00 23,9 17,3 8 4 OSO 1014,7 10 -
23.06.2018 07:00:00 20,0 17,0 9 5 OSO - 10 -
23.06.2018 06:00:00 18,0 16,0 9 5 O - 10 -
23.06.2018 05:00:00 18,7 16,8 11 6 O 1013,7 10 0,0
23.06.2018 04:00:00 19,0 17,0 9 5 O - 10 -
23.06.2018 03:00:00 20,0 18,0 13 7 OSO - 10 -
23.06.2018 02:00:00 20,6 18,4 5 3 ONO 1014,0 10 -
23.06.2018 01:00:00 20,0 18,0 11 6 O - 10 -
23.06.2018 00:00:00 21,0 18,0 8 4 OSO - 10 -
22.06.2018 23:00:00 20,9 17,3 9 5 OSO 1014,4 10 0,0
22.06.2018 22:00:00 22,0 18,0 8 4 O - 10 -
22.06.2018 21:00:00 24,0 18,0 11 6 O - 10 -
22.06.2018 20:00:00 25,3 17,9 13 7 OSO 1013,6 10 -
22.06.2018 19:00:00 26,0 18,0 15 8 OSO - 10 -
22.06.2018 18:00:00 23,0 19,0 15 8 O - 10 -
22.06.2018 17:00:00 24,5 18,3 13 7 E 1013,9 10 0,0
22.06.2018 16:00:00 27,0 18,0 22 12 E - 10 -
22.06.2018 15:00:00 27,0 19,0 24 13 ENE - 10 -
22.06.2018 14:00:00 27,3 19,8 18 10 ESE 1014,3 10 -
22.06.2018 13:00:00 27,0 19,0 21 11 ESE - 10 -
22.06.2018 12:00:00 30,0 16,0 13 7 OSO - 10 -
22.06.2018 11:00:00 28,0 15,9 9 5 O 1015,3 10 0,0
22.06.2018 10:00:00 26,0 17,0 15 8 OSO - 10 -
22.06.2018 09:00:00 24,0 18,0 13 7 OSO - 10 -
22.06.2018 08:00:00 22,6 17,7 9 5 OSO 1015,6 10 -
22.06.2018 07:00:00 19,0 17,0 8 4 OSO - 10 -
22.06.2018 06:00:00 17,0 16,0 9 5 O - 10 -
22.06.2018 05:00:00 17,5 16,1 11 6 O 1015,4 10 0,0
22.06.2018 04:00:00 18,0 17,0 13 7 OSO - 10 -
22.06.2018 03:00:00 18,0 17,0 11 6 O - 10 -
22.06.2018 02:00:00 19,3 17,8 15 8 O 1015,8 10 -
22.06.2018 01:00:00 19,0 18,0 11 6 O - 10 -
22.06.2018 00:00:00 19,0 18,0 13 7 O - 10 -
21.06.2018 23:00:00 19,7 18,3 11 6 O 1016,8 10 0,0
21.06.2018 22:00:00 20,0 18,0 11 6 O - 10 -
21.06.2018 21:00:00 20,0 19,0 15 8 OSO - 10 -
21.06.2018 20:00:00 21,2 19,5 15 8 OSO 1016,0 10 -
21.06.2018 19:00:00 22,0 19,0 16 9 O - 10 -
21.06.2018 18:00:00 21,0 18,0 28 15 ONO - 7 -
21.06.2018 17:00:00 22,8 17,9 21 11 O 1017,0 8 0,0
21.06.2018 16:00:00 26,0 20,0 15 8 E - 10 -
21.06.2018 15:00:00 26,0 19,0 18 10 E - 10 -
21.06.2018 14:00:00 27,3 18,5 21 11 E 1016,7 10 -
21.06.2018 13:00:00 26,0 19,0 16 9 E - 10 -
21.06.2018 12:00:00 28,0 18,0 18 10 E - 10 -
21.06.2018 11:00:00 27,7 16,9 16 9 E 1017,5 10 0,0
21.06.2018 10:00:00 27,0 16,0 4 2 - - 10 -
21.06.2018 09:00:00 25,0 17,0 5 3 SSO - 10 -
21.06.2018 08:00:00 22,3 16,9 8 4 OSO 1018,0 10 -
21.06.2018 07:00:00 19,0 17,0 5 3 SO - 10 -
21.06.2018 06:00:00 17,0 16,0 5 3 OSO - 10 -
21.06.2018 05:00:00 17,5 15,6 8 4 O 1017,5 10 0,0
21.06.2018 04:00:00 18,0 16,0 4 2 OSO - 10 -
21.06.2018 03:00:00 18,0 16,0 5 3 O - 10 -
21.06.2018 02:00:00 18,6 16,5 8 4 O 1018,0 10 -
21.06.2018 01:00:00 21,0 19,0 2 1 O - 10 -
21.06.2018 00:00:00 21,0 20,0 4 2 - - 10 -
20.06.2018 23:00:00 21,9 19,5 5 3 E 1018,2 10 0,0
20.06.2018 22:00:00 22,0 19,0 4 2 E - 10 -
20.06.2018 21:00:00 23,0 18,0 8 4 ESE - 10 -
20.06.2018 20:00:00 23,1 18,9 13 7 ENE 1017,3 10 -
20.06.2018 19:00:00 24,0 19,0 13 7 E - 10 -
20.06.2018 18:00:00 25,0 17,0 15 8 ENE - 10 -
20.06.2018 17:00:00 26,3 17,9 13 7 E 1016,8 10 0,0
20.06.2018 16:00:00 27,0 17,0 13 7 E - 10 -
20.06.2018 15:00:00 26,0 17,0 11 6 ENE - 10 -
20.06.2018 14:00:00 25,9 17,6 4 2 - 1018,2 10 -
20.06.2018 13:00:00 25,0 18,0 16 9 SE - 10 -
20.06.2018 12:00:00 25,0 19,0 21 11 E - 10 -
20.06.2018 11:00:00 25,4 20,4 22 12 ENE 1017,6 10 0,0
20.06.2018 10:00:00 26,0 20,0 18 10 E - 10 -
20.06.2018 09:00:00 25,0 20,0 13 7 ENE - 10 -
20.06.2018 08:00:00 23,5 19,0 4 2 - 1017,3 10 -
20.06.2018 07:00:00 21,0 19,0 5 3 O - 10 -
20.06.2018 06:00:00 19,0 17,0 5 3 SO - 10 -
20.06.2018 05:00:00 18,7 17,0 4 2 - 1016,2 10 0,0
20.06.2018 04:00:00 19,0 18,0 4 2 - - 10 -
20.06.2018 03:00:00 20,0 19,0 8 4 ONO - 10 -
20.06.2018 02:00:00 19,4 17,9 9 5 O 1015,6 10 -
20.06.2018 01:00:00 22,0 20,0 4 2 - - 10 -
20.06.2018 00:00:00 21,0 19,0 8 4 O - 10 -
19.06.2018 23:00:00 21,2 19,2 9 5 O 1015,2 10 0,0
19.06.2018 22:00:00 22,0 19,0 2 1 - - 10 -
19.06.2018 21:00:00 23,0 20,0 2 1 - - 10 -
19.06.2018 20:00:00 24,3 19,5 11 6 E 1015,0 10 -
19.06.2018 19:00:00 26,0 19,0 9 5 E - 10 -
19.06.2018 18:00:00 27,0 16,0 11 6 NO - 10 -
19.06.2018 17:00:00 25,6 18,0 21 11 ENE 1014,6 10 0,0
19.06.2018 16:00:00 26,0 19,0 28 15 ENE - 10 -
19.06.2018 15:00:00 28,0 20,0 22 12 E - 10 -
19.06.2018 14:00:00 27,8 20,1 21 11 E 1013,7 10 -
19.06.2018 13:00:00 28,0 19,0 21 11 E - 10 -
19.06.2018 12:00:00 28,0 17,0 18 10 E - 10 -
19.06.2018 11:00:00 27,5 17,6 13 7 E 1013,8 10 0,0
19.06.2018 10:00:00 27,0 15,0 5 3 SSO - 10 -
19.06.2018 09:00:00 25,0 17,0 5 3 SO - 10 -
19.06.2018 08:00:00 22,4 16,6 8 4 SO 1013,5 10 -
19.06.2018 07:00:00 19,0 17,0 5 3 SO - 10 -
19.06.2018 06:00:00 17,0 16,0 4 2 O - 10 -
19.06.2018 05:00:00 18,0 16,4 5 3 OSO 1012,5 10 0,0
19.06.2018 04:00:00 19,0 17,0 11 6 O - 10 -
19.06.2018 03:00:00 20,0 18,0 4 2 - - 10 -
19.06.2018 02:00:00 20,0 18,1 8 4 O 1012,4 10 -
19.06.2018 01:00:00 22,0 20,0 4 2 - - 10 -
19.06.2018 00:00:00 22,0 19,0 8 4 ONO - 10 -
18.06.2018 23:00:00 22,3 20,0 4 2 S 1012,8 10 0,0
18.06.2018 22:00:00 23,0 19,0 5 3 ESE - 10 -

tt = Temperatura
td = dewpoint
ff = velocità del vento
dd = direzione del vento
ppp = reduced air pressure
vv = visibility
rr = precipitazioni

Stazioni seguenti

WeatherPro
AMSI
MeteoEarth